{"data":{"norad_id":46493,"intl_designator":"2020-068H","name":"DEKART","alt_names":[],"object_type":"PAYLOAD","status":"ACTIVE","operator":null,"country":"CIS","launch_date":"2020-09-28","launch_site_code":"PLMSC","launch_vehicle":null,"mission":null,"orbit_class":"UNKNOWN","rcs_meters":null,"size_class":null,"mass_kg":null,"dimensions":null,"purposes":[],"wikipedia_slug":null,"has_3d_model":false,"image_url":null,"decayed_at":null,"tle_current":{"epoch":"2026-05-25T03:52:03.771264Z","epoch_age_seconds":71516,"freshness":"FRESH","line1":"1 46493U 20068H   26145.16115476  .00011783  00000+0  33022-3 0  9993","line2":"2 46493  97.8750 152.7928 0009292  19.7774 340.3828 15.36739172312238","mean_motion":15.36739172,"eccentricity":0.0009292,"inclination_deg":97.875,"raan_deg":152.7928,"arg_perigee_deg":19.7774,"mean_anomaly_deg":340.3828,"bstar":0.00033022,"rev_number":31223,"period_min":93.704906222043,"perigee_km":449.40949194852,"apogee_km":462.10960529448,"semimajor_km":6833.8965486215,"source":"CELESTRAK","updated_at":"2026-05-25T13:37:56.324442Z"}}}